Location: ???????
(38.3360°N, 23.6977°E)
Time: 04:57:09
(UTC+00:00)

Helios 1A Rocket - Pass Details

Date: 17 November 2025
Orbit: 439 x 451 km, 98.3° (Epoch: 09 December)

Event Time Altitude Azimuth Distance (km) Brightness Sun altitude
Exits shadow 16:16:32 18° 44° (NE) 1,158 4.0 -12.9°
Maximum altitude 16:18:29 34° 99° (E) 763 3.1 -13.3°
Drops below altitude 10° 16:21:35 10° 166° (SSE) 1,570 5.1 -13.9°
Sets 16:23:43 0° 176° (S) 2,441 6.2 -14.3°
